Miami, FL

4:44 AM EDT on June 20, 2018 (GMT -0400)
Miami International

Weather History for KMIA - March, 2011

Change the Weather History Date:

Thursday, March 3, 2011

  Actual Average Record
Temperature  
Mean Temperature 75 °F 72 °F  
Max Temperature 79 °F 79 °F 90 °F (2007)
Min Temperature 70 °F 64 °F 32 °F (1980)
Degree Days  
Heating Degree Days 0 1  
Month to date heating degree days 0 3  
Since 1 July heating degree days 205 119  
Cooling Degree Days 10 7  
Month to date cooling degree days 33 21  
Year to date cooling degree days 367 343  
Growing Degree Days 24 (Base 50)    
Moisture  
Dew Point 54 °F    
Average Humidity 55    
Maximum Humidity 66    
Minimum Humidity 44    
Precipitation  
Precipitation T in 0.08 in 1.41 in (1978)
Month to date precipitation 0.11 0.24  
Year to date precipitation 2.89 4.11  
Snow  
Snow 0.00 in - - ()
Month to date snowfall 0.0  
Since 1 July snowfall 0.0  
Snow Depth 0.00 in    
Sea Level Pressure  
Sea Level Pressure 30.13 in    
Wind  
Wind Speed 15 mph (ENE)    
Max Wind Speed 26 mph    
Max Gust Speed 32 mph    
Visibility 10 miles    
Events      
T = Trace of Precipitation, MM = Missing Value Source: NWS Daily Summary

Daily Weather History Graph

Daily Weather History Graph

Search for Another Location

Airport or City:

Astronomy

Mar. 03, 2011 Rise Set
Actual Time 6:42 AM EST 6:23 PM EST
Civil Twilight 6:19 AM EST 6:46 PM EST
Nautical Twilight 5:52 AM EST 7:13 PM EST
Astronomical Twilight 5:26 AM EST 7:40 PM EST
Moon 5:45 AM EST (3/3) 5:35 PM EST (3/3)
Length of Visible Light 12h 27m
Length of Day
11h 41m
Waning Crescent, 1% of the Moon is Illuminated
Mar 3
Waning Crescent
Mar 4
New
Mar 12
First Quarter
Mar 19
Full
Mar 26
Last Quarter

Hourly Weather History & Observations

Time (EST) Temp. Dew Point Humidity Pressure Visibility Wind Dir Wind Speed Gust Speed Precip Events Conditions
12:53 AM 70.0 °F 57.9 °F 65% 30.10 in 10.0 mi NE 5.8 mph - N/A   Scattered Clouds
1:53 AM 71.1 °F 57.9 °F 63% 30.09 in 10.0 mi NE 10.4 mph - N/A   Scattered Clouds
2:53 AM 70.0 °F 57.0 °F 63% 30.06 in 10.0 mi ENE 10.4 mph - N/A   Scattered Clouds
3:53 AM 70.0 °F 57.9 °F 65% 30.07 in 10.0 mi NE 9.2 mph - N/A   Clear
4:53 AM 70.0 °F 57.0 °F 63% 30.07 in 10.0 mi ENE 9.2 mph - N/A   Scattered Clouds
5:53 AM 72.0 °F 57.0 °F 59% 30.09 in 10.0 mi ENE 9.2 mph - N/A   Scattered Clouds
6:53 AM 70.0 °F 55.9 °F 61% 30.12 in 10.0 mi ENE 10.4 mph - N/A   Scattered Clouds
7:53 AM 72.0 °F 53.1 °F 51% 30.14 in 10.0 mi ENE 12.7 mph - N/A   Scattered Clouds
8:53 AM 73.9 °F 52.0 °F 46% 30.16 in 10.0 mi ENE 16.1 mph 24.2 mph N/A   Partly Cloudy
9:53 AM 75.9 °F 54.0 °F 46% 30.17 in 10.0 mi ENE 19.6 mph 26.5 mph N/A   Scattered Clouds
10:53 AM 75.0 °F 51.1 °F 43% 30.18 in 10.0 mi ENE 18.4 mph 26.5 mph N/A   Scattered Clouds
11:53 AM 73.9 °F 54.0 °F 50% 30.18 in 10.0 mi ENE 21.9 mph - 0.00 in   Mostly Cloudy
12:53 PM 75.9 °F 52.0 °F 43% 30.16 in 10.0 mi ENE 15.0 mph 24.2 mph N/A   Mostly Cloudy
1:53 PM 77.0 °F 55.0 °F 47% 30.13 in 10.0 mi ENE 17.3 mph 29.9 mph N/A   Mostly Cloudy
2:53 PM 73.9 °F 52.0 °F 46% 30.13 in 10.0 mi ENE 23.0 mph 29.9 mph N/A   Mostly Cloudy
3:53 PM 75.9 °F 53.1 °F 45% 30.12 in 10.0 mi ENE 20.7 mph 28.8 mph N/A   Scattered Clouds
4:53 PM 73.9 °F 50.0 °F 43% 30.12 in 10.0 mi ENE 18.4 mph 28.8 mph N/A   Scattered Clouds
5:53 PM 73.0 °F 54.0 °F 51% 30.13 in 10.0 mi ENE 17.3 mph 25.3 mph N/A   Scattered Clouds
6:53 PM 72.0 °F 54.0 °F 53% 30.14 in 10.0 mi ENE 13.8 mph 24.2 mph N/A   Scattered Clouds
7:53 PM 72.0 °F 52.0 °F 49% 30.15 in 10.0 mi East 17.3 mph 23.0 mph N/A   Scattered Clouds
8:53 PM 71.1 °F 51.1 °F 49% 30.17 in 10.0 mi East 12.7 mph 19.6 mph N/A   Scattered Clouds
9:53 PM 71.1 °F 53.1 °F 53% 30.17 in 10.0 mi ENE 12.7 mph 20.7 mph N/A   Partly Cloudy
10:53 PM 71.1 °F 53.1 °F 53% 30.18 in 10.0 mi ENE 13.8 mph 19.6 mph N/A   Partly Cloudy
11:53 PM 71.1 °F 51.1 °F 49% 30.18 in 10.0 mi East 15.0 mph - N/A   Scattered Clouds